Location: Tabor
(49.4170°N, 14.6670°E)
Time: 11:22:27
(UTC+02:00)

ISS - Pass Details

Date: 19 May 2021
Orbit: 417 x 422 km, 51.6° (Epoch: 13 June)

Event Time Altitude Azimuth Distance (km) Brightness Sun altitude
Rises 00:30:08 0° 284° (WNW) 2,368 0.3 -20.5°
Reaches altitude 10° 00:32:15 10° 287° (WNW) 1,504 -0.7 -20.6°
Maximum altitude 00:35:36 65° 10° (N) 465 -3.4 -20.6°
Enters shadow 00:36:27 45° 73° (ENE) 588 -3.0 -20.7°
